| time (UTC) | temp F | wind direction | speed MPH | gust MPH | rain 1hr in | rain 24hr in | rain mn in | humidity % | barometer mb |
| 20260904210004 | 77 | 349 | 1.0 | 4.0 | 0.00 | 0.00 | 0.00 | 73 | 1013.7 |
| 20260904205525 | 77 | 341 | 1.0 | 6.0 | 0.00 | 0.00 | 0.00 | 75 | 1013.9 |
| 20260904205004 | 77 | 311 | 1.0 | 6.0 | 0.00 | 0.00 | 0.00 | 72 | 1014.1 |
| 20260904204504 | 78 | 331 | 1.0 | 6.0 | 0.00 | 0.00 | 0.00 | 72 | 1013.9 |
| 20260904204004 | 78 | 283 | 1.0 | 6.0 | 0.00 | 0.00 | 0.00 | 68 | 1013.8 |
| 20260904203504 | 78 | 264 | 1.0 | 6.0 | 0.00 | 0.00 | 0.00 | 67 | 1013.8 |
| 20260904203004 | 79 | 265 | 1.0 | 9.0 | 0.00 | 0.00 | 0.00 | 64 | 1014.0 |
| 20260904202504 | 79 | 257 | 3.0 | 9.0 | 0.00 | 0.00 | 0.00 | 69 | 1014.0 |
| 20260904202005 | 79 | 280 | 3.0 | 9.0 | 0.00 | 0.00 | 0.00 | 66 | 1014.1 |
| 20260904201504 | 79 | 289 | 1.0 | 6.0 | 0.00 | 0.00 | 0.00 | 66 | 1014.2 |
| 20260904201004 | 80 | 309 | 1.0 | 6.0 | 0.00 | 0.00 | 0.00 | 71 | 1014.5 |
| 20260904200504 | 79 | 308 | 3.0 | 9.0 | 0.00 | 0.00 | 0.00 | 64 | 1014.5 |
| 20260904200004 | 79 | 323 | 3.0 | 9.0 | 0.00 | 0.00 | 0.00 | 65 | 1014.5 |
| 20260904195504 | 80 | 317 | 3.0 | 9.0 | 0.00 | 0.00 | 0.00 | 69 | 1014.5 |
| 20260904195025 | 80 | 307 | 3.0 | 7.0 | 0.00 | 0.00 | 0.00 | 65 | 1014.7 |
| 20260904194504 | 80 | 313 | 3.0 | 7.0 | 0.00 | 0.00 | 0.00 | 68 | 1014.7 |
| 20260904194004 | 80 | 321 | 3.0 | 7.0 | 0.00 | 0.00 | 0.00 | 67 | 1014.8 |
| 20260904193504 | 80 | 322 | 1.0 | 6.0 | 0.00 | 0.00 | 0.00 | 71 | 1014.9 |
| 20260904193004 | 80 | 332 | 1.0 | 6.0 | 0.00 | 0.00 | 0.00 | 65 | 1014.9 |
| 20260904192504 | 80 | 319 | 1.0 | 4.0 | 0.00 | 0.00 | 0.00 | 64 | 1014.9 |
| 20260904192004 | 80 | 318 | 1.0 | 4.0 | 0.00 | 0.00 | 0.00 | 65 | 1015.0 |
| 20260904191504 | 80 | 285 | 1.0 | 4.0 | 0.00 | 0.00 | 0.00 | 61 | 1015.0 |
| 20260904191004 | 80 | 273 | 1.0 | 6.0 | 0.00 | 0.00 | 0.00 | 65 | 1015.0 |
| 20260904190504 | 80 | 302 | 3.0 | 9.0 | 0.00 | 0.00 | 0.00 | 67 | 1015.1 |
| 20260904190004 | 80 | 323 | 3.0 | 9.0 | 0.00 | 0.00 | 0.00 | 67 | 1015.2 |
| 20260904185504 | 80 | 321 | 3.0 | 10.0 | 0.00 | 0.00 | 0.00 | 63 | 1015.2 |
| 20260904185025 | 80 | 292 | 3.0 | 10.0 | 0.00 | 0.00 | 0.00 | 71 | 1015.2 |
| 20260904184504 | 79 | 274 | 1.0 | 10.0 | 0.00 | 0.00 | 0.00 | 67 | 1015.2 |
| 20260904184004 | 78 | 296 | 1.0 | 10.0 | 0.00 | 0.00 | 0.00 | 65 | 1015.2 |
| 20260904183504 | 78 | 319 | 3.0 | 6.0 | 0.00 | 0.00 | 0.00 | 66 | 1015.2 |
| 20260904183004 | 78 | 322 | 3.0 | 6.0 | 0.00 | 0.00 | 0.00 | 65 | 1015.3 |
| 20260904182504 | 79 | 299 | 3.0 | 6.0 | 0.00 | 0.00 | 0.00 | 71 | 1015.4 |
| 20260904182004 | 79 | 265 | 3.0 | 9.0 | 0.00 | 0.00 | 0.00 | 69 | 1015.4 |
| 20260904181504 | 79 | 274 | 3.0 | 9.0 | 0.00 | 0.00 | 0.00 | 70 | 1015.4 |
| 20260904181004 | 79 | 318 | 3.0 | 7.0 | 0.00 | 0.00 | 0.00 | 71 | 1015.4 |
| 20260904180504 | 79 | 318 | 1.0 | 7.0 | 0.00 | 0.00 | 0.00 | 65 | 1015.3 |
| 20260904180004 | 79 | 248 | 1.0 | 4.0 | 0.00 | 0.00 | 0.00 | 69 | 1015.4 |
| 20260904175504 | 78 | 223 | 3.0 | 9.0 | 0.00 | 0.00 | 0.00 | 73 | 1015.5 |
| 20260904175025 | 78 | 203 | 3.0 | 9.0 | 0.00 | 0.00 | 0.00 | 65 | 1015.6 |
| 20260904174504 | 78 | 307 | 3.0 | 9.0 | 0.00 | 0.00 | 0.00 | 72 | 1015.7 |
| 20260904174004 | 78 | 304 | 3.0 | 9.0 | 0.00 | 0.00 | 0.00 | 74 | 1015.5 |
| 20260904173504 | 78 | 268 | 3.0 | 7.0 | 0.00 | 0.00 | 0.00 | 76 | 1015.5 |
| 20260904173004 | 78 | 268 | 3.0 | 10.0 | 0.00 | 0.00 | 0.00 | 68 | 1015.6 |
| 20260904172504 | 78 | 299 | 3.0 | 12.0 | 0.00 | 0.00 | 0.00 | 76 | 1015.6 |
| 20260904172004 | 77 | 301 | 1.0 | 12.0 | 0.00 | 0.00 | 0.00 | 71 | 1015.6 |
| 20260904171504 | 77 | 303 | 3.0 | 16.0 | 0.00 | 0.00 | 0.00 | 78 | 1015.6 |
| 20260904171004 | 77 | 321 | 3.0 | 16.0 | 0.00 | 0.00 | 0.00 | 78 | 1015.7 |
| 20260904170504 | 78 | 336 | 1.0 | 4.0 | 0.00 | 0.00 | 0.00 | 76 | 1015.7 |
| 20260904170025 | 78 | 347 | 1.0 | 6.0 | 0.00 | 0.00 | 0.00 | 79 | 1015.7 |
| 20260904165504 | 77 | 304 | 3.0 | 9.0 | 0.00 | 0.00 | 0.00 | 76 | 1015.7 |
| 20260904165004 | 77 | 279 | 3.0 | 9.0 | 0.00 | 0.00 | 0.00 | 73 | 1015.7 |
| 20260904164504 | 77 | 250 | 1.0 | 6.0 | 0.00 | 0.00 | 0.00 | 77 | 1015.6 |
| 20260904164004 | 77 | 218 | 1.0 | 6.0 | 0.00 | 0.00 | 0.00 | 72 | 1015.7 |
| 20260904163504 | 77 | 231 | 1.0 | 4.0 | 0.00 | 0.00 | 0.00 | 76 | 1015.7 |
| 20260904163004 | 77 | 278 | 1.0 | 6.0 | 0.00 | 0.00 | 0.00 | 76 | 1015.7 |
| 20260904162525 | 77 | 297 | 1.0 | 6.0 | 0.00 | 0.00 | 0.00 | 76 | 1015.8 |
| 20260904162004 | 77 | 221 | 1.0 | 9.0 | 0.00 | 0.00 | 0.00 | 77 | 1015.8 |
| 20260904161504 | 77 | 209 | 1.0 | 9.0 | 0.00 | 0.00 | 0.00 | 68 | 1015.8 |
| 20260904161004 | 77 | 251 | 1.0 | 7.0 | 0.00 | 0.00 | 0.00 | 77 | 1015.8 |
| 20260904160504 | 76 | 290 | 1.0 | 7.0 | 0.00 | 0.00 | 0.00 | 75 | 1015.9 |
| 20260904160004 | 76 | 263 | 1.0 | 10.0 | 0.00 | 0.00 | 0.00 | 80 | 1015.9 |
| 20260904155504 | 75 | 261 | 1.0 | 10.0 | 0.00 | 0.00 | 0.00 | 76 | 1015.9 |
| 20260904155025 | 75 | 293 | 1.0 | 6.0 | 0.00 | 0.00 | 0.00 | 85 | 1016.1 |
| 20260904154504 | 74 | 304 | 1.0 | 6.0 | 0.00 | 0.00 | 0.00 | 86 | 1016.1 |
| 20260904154004 | 74 | 330 | 1.0 | 7.0 | 0.00 | 0.00 | 0.00 | 88 | 1016.1 |
| 20260904153504 | 74 | 306 | 1.0 | 7.0 | 0.00 | 0.00 | 0.00 | 87 | 1016.2 |
| 20260904153004 | 74 | 287 | 1.0 | 9.0 | 0.00 | 0.00 | 0.00 | 85 | 1016.1 |
| 20260904152525 | 73 | 278 | 1.0 | 9.0 | 0.00 | 0.00 | 0.00 | 88 | 1016.2 |
| 20260904152004 | 73 | 277 | 1.0 | 4.0 | 0.00 | 0.00 | 0.00 | 88 | 1016.2 |
| 20260904151504 | 72 | 312 | 1.0 | 4.0 | 0.00 | 0.00 | 0.00 | 88 | 1015.9 |
| 20260904151004 | 72 | 27 | 1.0 | 4.0 | 0.00 | 0.00 | 0.00 | 90 | 1015.9 |
| 20260904150525 | 72 | 315 | 1.0 | 9.0 | 0.00 | 0.00 | 0.00 | 87 | 1016.0 |
| 20260904150004 | 72 | 238 | 0.0 | 9.0 | 0.00 | 0.00 | 0.00 | 91 | 1016.1 |
| 20260904145504 | 72 | 256 | 0.0 | 3.0 | 0.00 | 0.00 | 0.00 | 91 | 1016.1 |
| 20260904145004 | 72 | 311 | 0.0 | 4.0 | 0.00 | 0.00 | 0.00 | 90 | 1016.2 |
| 20260904144525 | 72 | 325 | 1.0 | 4.0 | 0.00 | 0.00 | 0.00 | 89 | 1016.3 |
| 20260904144004 | 72 | 313 | 1.0 | 4.0 | 0.00 | 0.00 | 0.00 | 90 | 1016.2 |
| 20260904143504 | 72 | 281 | 1.0 | 7.0 | 0.00 | 0.00 | 0.00 | 91 | 1016.2 |
| 20260904143004 | 72 | 190 | 1.0 | 7.0 | 0.00 | 0.00 | 0.00 | 91 | 1016.2 |
| 20260904142504 | 72 | 326 | 1.0 | 6.0 | 0.00 | 0.00 | 0.00 | 93 | 1016.4 |
| 20260904142004 | 72 | 342 | 1.0 | 6.0 | 0.00 | 0.00 | 0.00 | 93 | 1016.3 |
| 20260904141504 | 71 | 343 | 1.0 | 4.0 | 0.00 | 0.00 | 0.00 | 93 | 1016.2 |
| 20260904141004 | 71 | 299 | 1.0 | 4.0 | 0.00 | 0.00 | 0.00 | 94 | 1016.0 |
| 20260904140504 | 71 | 337 | 1.0 | 4.0 | 0.00 | 0.00 | 0.00 | 92 | 1016.0 |
| 20260904140004 | 70 | 360 | 1.0 | 4.0 | 0.00 | 0.00 | 0.00 | 94 | 1016.0 |
| 20260904135504 | 70 | 328 | 1.0 | 4.0 | 0.00 | 0.00 | 0.00 | 94 | 1015.9 |
| 20260904135025 | 70 | 316 | 0.0 | 3.0 | 0.00 | 0.00 | 0.00 | 93 | 1016.0 |
| 20260904134504 | 70 | 275 | 0.0 | 3.0 | 0.00 | 0.00 | 0.00 | 95 | 1015.9 |
| 20260904134004 | 70 | 240 | 1.0 | 3.0 | 0.00 | 0.00 | 0.00 | 94 | 1015.8 |
| 20260904133504 | 70 | 255 | 1.0 | 4.0 | 0.00 | 0.00 | 0.00 | 95 | 1015.7 |
| 20260904133004 | 70 | 312 | 1.0 | 4.0 | 0.00 | 0.00 | 0.00 | 95 | 1015.7 |
| 20260904132504 | 70 | 292 | 1.0 | 4.0 | 0.00 | 0.00 | 0.00 | 96 | 1015.6 |
| 20260904132004 | 70 | 261 | 1.0 | 4.0 | 0.00 | 0.00 | 0.00 | 95 | 1015.6 |
| 20260904131504 | 70 | 225 | 1.0 | 4.0 | 0.00 | 0.00 | 0.00 | 95 | 1015.8 |
| 20260904131004 | 70 | 270 | 1.0 | 4.0 | 0.00 | 0.00 | 0.00 | 97 | 1015.8 |
| 20260904130504 | 70 | 327 | 1.0 | 6.0 | 0.00 | 0.00 | 0.00 | 97 | 1015.8 |
| 20260904130004 | 70 | 353 | 1.0 | 7.0 | 0.00 | 0.00 | 0.00 | 97 | 1015.7 |
| 20260904125504 | 70 | 36 | 1.0 | 7.0 | 0.00 | 0.00 | 0.00 | 98 | 1015.8 |
| 20260904125004 | 70 | 120 | 1.0 | 4.0 | 0.00 | 0.00 | 0.00 | 98 | 1015.8 |
| 20260904124525 | 70 | 88 | 1.0 | 4.0 | 0.00 | 0.00 | 0.00 | 98 | 1015.8 |
| 20260904124004 | 70 | 117 | 0.0 | 3.0 | 0.00 | 0.00 | 0.00 | 98 | 1015.9 |
| 20260904123504 | 70 | 164 | 0.0 | 3.0 | 0.00 | 0.00 | 0.00 | 98 | 1015.9 |
| 20260904123004 | 70 | 155 | 0.0 | 1.0 | 0.00 | 0.00 | 0.00 | 98 | 1015.7 |
| 20260904122504 | 69 | 240 | 0.0 | 3.0 | 0.00 | 0.00 | 0.00 | 98 | 1015.6 |
| 20260904122004 | 69 | 274 | 0.0 | 3.0 | 0.00 | 0.00 | 0.00 | 98 | 1015.5 |
| 20260904121504 | 69 | 308 | 0.0 | 3.0 | 0.00 | 0.00 | 0.00 | 99 | 1015.6 |
| 20260904121004 | 69 | 311 | 0.0 | 3.0 | 0.00 | 0.00 | 0.00 | 99 | 1015.6 |
| 20260904120503 | 69 | 307 | 0.0 | 3.0 | 0.00 | 0.00 | 0.00 | 99 | 1015.6 |
| 20260904120004 | 69 | 302 | 0.0 | 3.0 | 0.00 | 0.00 | 0.00 | 99 | 1015.7 |
| 20260904115504 | 70 | 302 | 0.0 | 3.0 | 0.00 | 0.00 | 0.00 | 99 | 1015.6 |
| 20260904115025 | 69 | 302 | 0.0 | 3.0 | 0.00 | 0.00 | 0.00 | 99 | 1015.6 |
| 20260904114504 | 70 | 302 | 0.0 | 1.0 | 0.00 | 0.00 | 0.00 | 99 | 1015.9 |
| 20260904114004 | 70 | 286 | 0.0 | 3.0 | 0.00 | 0.00 | 0.00 | 99 | 1015.8 |
| 20260904113504 | 69 | 294 | 1.0 | 3.0 | 0.00 | 0.00 | 0.00 | 99 | 1015.6 |
| 20260904113004 | 69 | 267 | 1.0 | 3.0 | 0.00 | 0.00 | 0.00 | 99 | 1015.5 |
| 20260904112525 | 69 | 230 | 1.0 | 4.0 | 0.00 | 0.00 | 0.00 | 99 | 1015.6 |
| 20260904112004 | 70 | 253 | 1.0 | 4.0 | 0.00 | 0.00 | 0.00 | 99 | 1015.5 |
| 20260904111525 | 70 | 257 | 1.0 | 3.0 | 0.00 | 0.00 | 0.00 | 99 | 1015.6 |
| 20260904111004 | 70 | 243 | 0.0 | 3.0 | 0.00 | 0.00 | 0.00 | 99 | 1015.6 |
| 20260904110504 | 70 | 248 | 0.0 | 3.0 | 0.00 | 0.00 | 0.00 | 99 | 1015.6 |
| 20260904110004 | 70 | 248 | 0.0 | 3.0 | 0.00 | 0.00 | 0.00 | 99 | 1015.4 |
| 20260904105504 | 70 | 243 | 0.0 | 1.0 | 0.00 | 0.00 | 0.00 | 99 | 1015.2 |
| 20260904105025 | 70 | 0 | 0.0 | 0.0 | 0.00 | 0.00 | 0.00 | 100 | 1015.2 |
| 20260904104504 | 70 | 0 | 0.0 | 0.0 | 0.00 | 0.00 | 0.00 | 99 | 1015.1 |
| 20260904104004 | 70 | 0 | 0.0 | 0.0 | 0.00 | 0.00 | 0.00 | 99 | 1014.9 |
| 20260904103503 | 70 | 0 | 0.0 | 0.0 | 0.00 | 0.01 | 0.00 | 100 | 1015.1 |
| 20260904103004 | 70 | 0 | 0.0 | 0.0 | 0.00 | 0.01 | 0.00 | 99 | 1015.0 |
| 20260904102503 | 70 | 0 | 0.0 | 0.0 | 0.00 | 0.02 | 0.00 | 100 | 1015.0 |
| 20260904102003 | 70 | 0 | 0.0 | 0.0 | 0.00 | 0.02 | 0.00 | 99 | 1015.1 |
| 20260904101504 | 70 | 0 | 0.0 | 0.0 | 0.00 | 0.02 | 0.00 | 99 | 1015.1 |
| 20260904101004 | 70 | 0 | 0.0 | 0.0 | 0.00 | 0.02 | 0.00 | 99 | 1015.0 |
| 20260904100503 | 70 | 0 | 0.0 | 0.0 | 0.00 | 0.02 | 0.00 | 100 | 1015.1 |
| 20260904100004 | 70 | 0 | 0.0 | 0.0 | 0.00 | 0.02 | 0.00 | 100 | 1015.1 |
| 20260904095525 | 70 | 0 | 0.0 | 0.0 | 0.00 | 0.02 | 0.00 | 99 | 1015.0 |
| 20260904095004 | 69 | 0 | 0.0 | 0.0 | 0.00 | 0.02 | 0.00 | 99 | 1014.9 |
| 20260904094525 | 69 | 0 | 0.0 | 0.0 | 0.00 | 0.02 | 0.00 | 100 | 1015.1 |
| 20260904094003 | 69 | 0 | 0.0 | 0.0 | 0.00 | 0.02 | 0.00 | 100 | 1015.0 |
| 20260904093503 | 69 | 0 | 0.0 | 0.0 | 0.00 | 0.02 | 0.00 | 100 | 1015.0 |
| 20260904093024 | 69 | 0 | 0.0 | 0.0 | 0.00 | 0.02 | 0.00 | 100 | 1015.0 |
| 20260904092503 | 69 | 0 | 0.0 | 0.0 | 0.00 | 0.02 | 0.00 | 100 | 1015.0 |
| 20260904092003 | 69 | 0 | 0.0 | 0.0 | 0.00 | 0.02 | 0.00 | 99 | 1015.0 |
| 20260904091503 | 69 | 0 | 0.0 | 0.0 | 0.00 | 0.02 | 0.00 | 99 | 1015.0 |
| 20260904091003 | 69 | 0 | 0.0 | 0.0 | 0.00 | 0.02 | 0.00 | 99 | 1014.9 |
| 20260904090503 | 69 | 0 | 0.0 | 0.0 | 0.00 | 0.02 | 0.00 | 99 | 1014.6 |
| 20260904090004 | 69 | 0 | 0.0 | 0.0 | 0.00 | 0.02 | 0.00 | 99 | 1014.4 |
| 20260904085503 | 69 | 0 | 0.0 | 0.0 | 0.00 | 0.02 | 0.00 | 99 | 1014.5 |
| 20260904085003 | 69 | 0 | 0.0 | 0.0 | 0.00 | 0.02 | 0.00 | 99 | 1014.4 |
| 20260904084503 | 69 | 0 | 0.0 | 0.0 | 0.00 | 0.02 | 0.00 | 99 | 1014.4 |
| 20260904084003 | 69 | 0 | 0.0 | 0.0 | 0.00 | 0.02 | 0.00 | 99 | 1014.4 |
| 20260904083524 | 69 | 0 | 0.0 | 0.0 | 0.00 | 0.02 | 0.00 | 99 | 1014.3 |
| 20260904083004 | 69 | 0 | 0.0 | 0.0 | 0.00 | 0.02 | 0.00 | 99 | 1014.4 |
| 20260904082503 | 69 | 0 | 0.0 | 0.0 | 0.00 | 0.02 | 0.00 | 99 | 1014.4 |
| 20260904082003 | 69 | 0 | 0.0 | 0.0 | 0.00 | 0.02 | 0.00 | 99 | 1014.3 |
| 20260904081504 | 69 | 0 | 0.0 | 0.0 | 0.00 | 0.02 | 0.00 | 99 | 1014.5 |
| 20260904081003 | 69 | 0 | 0.0 | 0.0 | 0.00 | 0.02 | 0.00 | 99 | 1014.4 |
| 20260904080503 | 69 | 0 | 0.0 | 0.0 | 0.00 | 0.02 | 0.00 | 99 | 1014.3 |
| 20260904080003 | 69 | 0 | 0.0 | 0.0 | 0.00 | 0.02 | 0.00 | 99 | 1014.3 |
| 20260904075504 | 69 | 0 | 0.0 | 0.0 | 0.00 | 0.02 | 0.00 | 99 | 1014.3 |
| 20260904075003 | 69 | 0 | 0.0 | 0.0 | 0.00 | 0.02 | 0.00 | 99 | 1014.3 |
| 20260904074503 | 69 | 0 | 0.0 | 0.0 | 0.00 | 0.02 | 0.00 | 99 | 1014.2 |
| 20260904074024 | 69 | 0 | 0.0 | 0.0 | 0.00 | 0.02 | 0.00 | 99 | 1014.0 |
| 20260904073503 | 69 | 0 | 0.0 | 0.0 | 0.00 | 0.02 | 0.00 | 99 | 1014.0 |
| 20260904073024 | 69 | 0 | 0.0 | 0.0 | 0.00 | 0.02 | 0.00 | 99 | 1014.1 |
| 20260904072524 | 69 | 0 | 0.0 | 0.0 | 0.00 | 0.02 | 0.00 | 99 | 1013.9 |
| 20260904072003 | 69 | 0 | 0.0 | 0.0 | 0.00 | 0.02 | 0.00 | 99 | 1013.9 |
| 20260904071503 | 69 | 0 | 0.0 | 0.0 | 0.00 | 0.02 | 0.00 | 99 | 1013.9 |
| 20260904071003 | 69 | 0 | 0.0 | 0.0 | 0.00 | 0.02 | 0.00 | 99 | 1013.7 |
| 20260904070524 | 69 | 0 | 0.0 | 0.0 | 0.00 | 0.02 | 0.00 | 99 | 1013.9 |
| 20260904070024 | 69 | 0 | 0.0 | 0.0 | 0.00 | 0.02 | 0.00 | 99 | 1013.8 |
| 20260904065503 | 69 | 0 | 0.0 | 0.0 | 0.00 | 0.02 | 0.00 | 99 | 1013.8 |
| 20260904065003 | 69 | 0 | 0.0 | 0.0 | 0.00 | 0.03 | 0.00 | 99 | 1013.7 |
| 20260904064503 | 69 | 0 | 0.0 | 0.0 | 0.00 | 0.03 | 0.00 | 99 | 1013.6 |
| 20260904064003 | 69 | 0 | 0.0 | 0.0 | 0.00 | 0.04 | 0.00 | 99 | 1013.5 |
| 20260904063503 | 69 | 0 | 0.0 | 0.0 | 0.00 | 0.06 | 0.00 | 99 | 1013.5 |
| 20260904063003 | 69 | 0 | 0.0 | 0.0 | 0.00 | 0.07 | 0.00 | 99 | 1013.5 |
| 20260904062503 | 69 | 0 | 0.0 | 0.0 | 0.00 | 0.09 | 0.00 | 99 | 1013.7 |
| 20260904062003 | 69 | 127 | 0.0 | 1.0 | 0.00 | 0.11 | 0.00 | 99 | 1013.7 |
| 20260904061503 | 69 | 127 | 0.0 | 1.0 | 0.00 | 0.12 | 0.00 | 99 | 1013.9 |
| 20260904061003 | 69 | 108 | 0.0 | 3.0 | 0.00 | 0.13 | 0.00 | 99 | 1014.0 |
| 20260904060503 | 69 | 92 | 0.0 | 3.0 | 0.00 | 0.15 | 0.00 | 99 | 1014.0 |
| 20260904060024 | 69 | 46 | 0.0 | 1.0 | 0.00 | 0.15 | 0.00 | 99 | 1013.8 |
| 20260904055503 | 69 | 30 | 0.0 | 1.0 | 0.00 | 0.16 | 0.00 | 99 | 1013.9 |
| 20260904055003 | 69 | 30 | 0.0 | 1.0 | 0.00 | 0.16 | 0.00 | 99 | 1014.0 |
| 20260904054503 | 69 | 30 | 0.0 | 1.0 | 0.00 | 0.16 | 0.00 | 99 | 1014.1 |
| 20260904054003 | 69 | 30 | 1.0 | 4.0 | 0.00 | 0.16 | 0.00 | 99 | 1014.3 |
| 20260904053503 | 69 | 30 | 1.0 | 4.0 | 0.00 | 0.16 | 0.00 | 99 | 1014.3 |
| 20260904053003 | 70 | 30 | 1.0 | 3.0 | 0.00 | 0.16 | 0.00 | 99 | 1014.3 |
| 20260904052503 | 69 | 30 | 1.0 | 3.0 | 0.00 | 0.16 | 0.00 | 99 | 1014.4 |
| 20260904052024 | 70 | 30 | 1.0 | 3.0 | 0.00 | 0.16 | 0.00 | 98 | 1014.5 |
| 20260904051503 | 70 | 40 | 1.0 | 4.0 | 0.00 | 0.16 | 0.00 | 99 | 1014.3 |
| 20260904051003 | 70 | 56 | 1.0 | 4.0 | 0.00 | 0.16 | 0.00 | 98 | 1014.4 |
| 20260904050503 | 70 | 138 | 0.0 | 3.0 | 0.00 | 0.17 | 0.00 | 98 | 1014.3 |
| 20260904050003 | 70 | 171 | 1.0 | 3.0 | 0.00 | 0.18 | 0.00 | 98 | 1014.4 |
| 20260904045503 | 70 | 185 | 1.0 | 3.0 | 0.00 | 0.18 | 0.00 | 98 | 1014.1 |
| 20260904045003 | 70 | 350 | 1.0 | 3.0 | 0.00 | 0.18 | 0.00 | 98 | 1014.0 |
| 20260904044503 | 70 | 350 | 1.0 | 3.0 | 0.00 | 0.18 | 0.00 | 98 | 1014.0 |
| 20260904044003 | 70 | 350 | 0.0 | 3.0 | 0.00 | 0.18 | 0.00 | 98 | 1013.9 |
| 20260904043503 | 70 | 350 | 0.0 | 1.0 | 0.00 | 0.19 | 0.00 | 98 | 1014.0 |
| 20260904043003 | 70 | 350 | 0.0 | 3.0 | 0.00 | 0.19 | 0.00 | 98 | 1014.1 |
| 20260904042503 | 70 | 333 | 1.0 | 6.0 | 0.00 | 0.19 | 0.00 | 98 | 1014.2 |
| 20260904042003 | 70 | 337 | 1.0 | 6.0 | 0.00 | 0.19 | 0.00 | 98 | 1014.4 |
| 20260904041503 | 70 | 144 | 1.0 | 3.0 | 0.00 | 0.19 | 0.00 | 98 | 1014.1 |
| 20260904041003 | 70 | 171 | 1.0 | 4.0 | 0.00 | 0.19 | 0.00 | 98 | 1014.3 |
| 20260904040524 | 70 | 199 | 0.0 | 4.0 | 0.00 | 0.19 | 0.00 | 98 | 1014.5 |
| 20260904040004 | 70 | 0 | 0.0 | 0.0 | 0.00 | 0.19 | 0.00 | 98 | 1014.7 |
| 20260904035526 | 70 | 0 | 0.0 | 0.0 | 0.00 | 0.19 | 0.19 | 98 | 1014.6 |
| 20260904035005 | 70 | 0 | 0.0 | 0.0 | 0.00 | 0.19 | 0.19 | 98 | 1014.6 |
| 20260904034505 | 70 | 0 | 0.0 | 0.0 | 0.00 | 0.19 | 0.19 | 98 | 1014.5 |
| 20260904034005 | 70 | 0 | 0.0 | 0.0 | 0.00 | 0.19 | 0.19 | 98 | 1014.5 |
| 20260904033526 | 70 | 0 | 0.0 | 0.0 | 0.00 | 0.19 | 0.19 | 98 | 1014.6 |
| 20260904033005 | 70 | 0 | 0.0 | 0.0 | 0.00 | 0.19 | 0.19 | 98 | 1014.9 |
| 20260904032505 | 71 | 0 | 0.0 | 0.0 | 0.00 | 0.20 | 0.19 | 98 | 1015.1 |
| 20260904032005 | 71 | 0 | 0.0 | 0.0 | 0.00 | 0.20 | 0.19 | 98 | 1015.2 |
| 20260904031505 | 71 | 0 | 0.0 | 0.0 | 0.00 | 0.21 | 0.19 | 97 | 1015.1 |
| 20260904031026 | 71 | 0 | 0.0 | 0.0 | 0.00 | 0.22 | 0.19 | 97 | 1015.1 |
| 20260904030505 | 71 | 0 | 0.0 | 0.0 | 0.00 | 0.23 | 0.19 | 97 | 1015.0 |
| 20260904030005 | 72 | 0 | 0.0 | 0.0 | 0.00 | 0.23 | 0.19 | 97 | 1015.0 |
| 20260904025505 | 72 | 0 | 0.0 | 0.0 | 0.00 | 0.24 | 0.19 | 97 | 1014.8 |
| 20260904025005 | 72 | 0 | 0.0 | 0.0 | 0.00 | 0.25 | 0.19 | 97 | 1014.6 |
| 20260904024504 | 72 | 0 | 0.0 | 0.0 | 0.00 | 0.28 | 0.19 | 98 | 1014.5 |
| 20260904024004 | 72 | 0 | 0.0 | 0.0 | 0.00 | 0.41 | 0.19 | 98 | 1014.4 |
| 20260904023505 | 72 | 0 | 0.0 | 0.0 | 0.00 | 0.74 | 0.19 | 98 | 1014.5 |
| 20260904023005 | 73 | 0 | 0.0 | 0.0 | 0.00 | 0.93 | 0.19 | 98 | 1014.5 |
| 20260904022505 | 73 | 0 | 0.0 | 0.0 | 0.00 | 1.01 | 0.19 | 98 | 1014.6 |
| 20260904022005 | 73 | 0 | 0.0 | 0.0 | 0.00 | 1.01 | 0.19 | 98 | 1014.8 |
| 20260904021505 | 73 | 0 | 0.0 | 0.0 | 0.00 | 1.01 | 0.19 | 97 | 1014.9 |
| 20260904021005 | 73 | 0 | 0.0 | 0.0 | 0.00 | 1.01 | 0.19 | 98 | 1015.0 |
| 20260904020526 | 73 | 0 | 0.0 | 0.0 | 0.00 | 1.01 | 0.19 | 98 | 1015.2 |
| 20260904020005 | 73 | 0 | 0.0 | 0.0 | 0.00 | 1.01 | 0.19 | 98 | 1015.2 |
| 20260904015504 | 73 | 0 | 0.0 | 0.0 | 0.00 | 1.01 | 0.19 | 97 | 1015.2 |
| 20260904015005 | 73 | 0 | 0.0 | 0.0 | 0.00 | 1.01 | 0.19 | 97 | 1015.1 |
| 20260904014505 | 74 | 0 | 0.0 | 0.0 | 0.00 | 1.01 | 0.19 | 97 | 1015.2 |
| 20260904014005 | 74 | 0 | 0.0 | 0.0 | 0.00 | 1.01 | 0.19 | 98 | 1015.5 |
| 20260904013505 | 74 | 0 | 0.0 | 0.0 | 0.00 | 1.01 | 0.19 | 98 | 1015.5 |
| 20260904013005 | 74 | 0 | 0.0 | 0.0 | 0.00 | 1.01 | 0.19 | 98 | 1015.5 |
| 20260904012504 | 74 | 0 | 0.0 | 0.0 | 0.00 | 1.01 | 0.19 | 97 | 1015.6 |
| 20260904012026 | 74 | 0 | 0.0 | 0.0 | 0.00 | 1.01 | 0.19 | 97 | 1015.7 |
| 20260904011504 | 74 | 0 | 0.0 | 0.0 | 0.00 | 1.01 | 0.19 | 97 | 1015.7 |
| 20260904011025 | 74 | 0 | 0.0 | 0.0 | 0.00 | 1.01 | 0.19 | 97 | 1015.7 |
| 20260904010526 | 74 | 0 | 0.0 | 0.0 | 0.00 | 1.01 | 0.19 | 97 | 1015.7 |
| 20260904010005 | 74 | 0 | 0.0 | 0.0 | 0.00 | 1.01 | 0.19 | 97 | 1015.8 |
| 20260904005504 | 74 | 0 | 0.0 | 0.0 | 0.00 | 1.01 | 0.19 | 97 | 1015.7 |
| 20260904005005 | 74 | 0 | 0.0 | 0.0 | 0.00 | 1.01 | 0.19 | 97 | 1015.4 |
| 20260904004504 | 75 | 0 | 0.0 | 0.0 | 0.00 | 1.01 | 0.19 | 97 | 1015.4 |
| 20260904004005 | 75 | 0 | 0.0 | 0.0 | 0.00 | 1.01 | 0.19 | 97 | 1015.4 |
| 20260904003504 | 75 | 0 | 0.0 | 0.0 | 0.00 | 1.01 | 0.19 | 96 | 1015.4 |
| 20260904003005 | 75 | 0 | 0.0 | 0.0 | 0.00 | 1.01 | 0.19 | 96 | 1015.2 |
| 20260904002504 | 75 | 0 | 0.0 | 0.0 | 0.00 | 1.01 | 0.19 | 96 | 1015.0 |
| 20260904002004 | 75 | 0 | 0.0 | 0.0 | 0.00 | 1.01 | 0.19 | 96 | 1015.1 |
| 20260904001504 | 75 | 0 | 0.0 | 0.0 | 0.00 | 1.01 | 0.19 | 96 | 1014.9 |
| 20260904001026 | 75 | 0 | 0.0 | 0.0 | 0.00 | 1.01 | 0.19 | 96 | 1014.9 |
| 20260904000505 | 75 | 0 | 0.0 | 0.0 | 0.00 | 1.01 | 0.19 | 95 | 1014.7 |
| 20260904000005 | 75 | 99 | 0.0 | 1.0 | 0.00 | 1.01 | 0.19 | 95 | 1015.0 |
| 20260903235504 | 76 | 99 | 1.0 | 3.0 | 0.00 | 1.01 | 0.19 | 94 | 1014.9 |
| 20260903235004 | 76 | 99 | 1.0 | 3.0 | 0.00 | 1.01 | 0.19 | 95 | 1015.0 |
| 20260903234504 | 76 | 99 | 1.0 | 3.0 | 0.00 | 1.01 | 0.19 | 94 | 1015.0 |
| 20260903234005 | 76 | 99 | 0.0 | 3.0 | 0.00 | 1.01 | 0.19 | 94 | 1014.9 |
| 20260903233504 | 76 | 99 | 0.0 | 3.0 | 0.00 | 1.01 | 0.19 | 94 | 1014.8 |
| 20260903233004 | 76 | 99 | 0.0 | 3.0 | 0.00 | 1.01 | 0.19 | 94 | 1014.8 |
| 20260903232504 | 76 | 106 | 0.0 | 3.0 | 0.00 | 1.01 | 0.19 | 94 | 1014.7 |
| 20260903232005 | 76 | 108 | 0.0 | 3.0 | 0.00 | 1.01 | 0.19 | 94 | 1014.7 |
| 20260903231525 | 76 | 167 | 0.0 | 1.0 | 0.00 | 1.01 | 0.19 | 93 | 1014.9 |
| 20260903231004 | 77 | 167 | 0.0 | 1.0 | 0.00 | 1.01 | 0.19 | 93 | 1014.9 |
| 20260903230504 | 77 | 167 | 0.0 | 1.0 | 0.00 | 1.01 | 0.19 | 92 | 1014.8 |
| 20260903230026 | 77 | 0 | 0.0 | 0.0 | 0.00 | 1.01 | 0.19 | 92 | 1014.8 |
| 20260903225504 | 77 | 0 | 0.0 | 0.0 | 0.00 | 1.01 | 0.19 | 92 | 1014.7 |
| 20260903225026 | 77 | 0 | 0.0 | 0.0 | 0.00 | 1.01 | 0.19 | 91 | 1014.7 |
| 20260903224504 | 77 | 0 | 0.0 | 0.0 | 0.00 | 1.01 | 0.19 | 91 | 1014.7 |
| 20260903224004 | 78 | 0 | 0.0 | 0.0 | 0.00 | 1.01 | 0.19 | 90 | 1014.6 |
| 20260903223505 | 78 | 0 | 0.0 | 0.0 | 0.00 | 1.01 | 0.19 | 90 | 1014.5 |
| 20260903223005 | 78 | 0 | 0.0 | 0.0 | 0.00 | 1.01 | 0.19 | 90 | 1014.5 |
| 20260903222504 | 78 | 167 | 0.0 | 1.0 | 0.00 | 1.01 | 0.19 | 90 | 1014.5 |
| 20260903222005 | 78 | 167 | 0.0 | 1.0 | 0.00 | 1.01 | 0.19 | 89 | 1014.1 |
| 20260903221504 | 78 | 0 | 0.0 | 0.0 | 0.00 | 1.01 | 0.19 | 89 | 1014.2 |
| 20260903221025 | 78 | 0 | 0.0 | 0.0 | 0.00 | 1.01 | 0.19 | 89 | 1014.4 |
| 20260903220504 | 78 | 0 | 0.0 | 0.0 | 0.00 | 1.01 | 0.19 | 88 | 1014.4 |
| 20260903220004 | 78 | 0 | 0.0 | 0.0 | 0.00 | 1.01 | 0.19 | 87 | 1014.5 |
| 20260903215504 | 78 | 0 | 0.0 | 0.0 | 0.00 | 1.01 | 0.19 | 89 | 1014.5 |
| 20260903215004 | 79 | 0 | 0.0 | 0.0 | 0.00 | 1.01 | 0.19 | 88 | 1014.5 |
| 20260903214504 | 79 | 0 | 0.0 | 0.0 | 0.00 | 1.01 | 0.19 | 88 | 1014.5 |
| 20260903214004 | 79 | 0 | 0.0 | 0.0 | 0.00 | 1.01 | 0.19 | 88 | 1014.7 |
| 20260903213504 | 79 | 0 | 0.0 | 0.0 | 0.00 | 1.01 | 0.19 | 87 | 1014.7 |
| 20260903213004 | 79 | 0 | 0.0 | 0.0 | 0.00 | 1.01 | 0.19 | 88 | 1014.6 |
| 20260903212504 | 79 | 0 | 0.0 | 0.0 | 0.00 | 1.01 | 0.19 | 87 | 1014.5 |
| 20260903212004 | 80 | 167 | 0.0 | 1.0 | 0.00 | 1.01 | 0.19 | 87 | 1014.5 |
| 20260903211504 | 80 | 167 | 0.0 | 1.0 | 0.00 | 1.01 | 0.19 | 86 | 1014.4 |
| 20260903211004 | 80 | 167 | 0.0 | 1.0 | 0.00 | 1.01 | 0.19 | 86 | 1014.3 |
| 20260903210504 | 80 | 0 | 0.0 | 0.0 | 0.00 | 1.01 | 0.19 | 85 | 1014.4 |